Time,TemperatureF,DewpointF,PressureIn,WindDirection,WindDirectionDegrees,WindSpeedMPH,WindSpeedGustMPH,Humidity,HourlyPrecipIn,Conditions,Clouds,dailyrainin,SoftwareType,DateUTC
2013-11-06 00:00:00,29.9,24.5,30.11,NNW,346,0.0,0.0,80,0.00,,,0.00,VWS V14.01,2013-11-06 06:00:00,
2013-11-06 00:10:00,29.9,24.5,30.11,NNW,345,0.0,1.0,80,0.00,,,0.00,VWS V14.01,2013-11-06 06:10:00,
2013-11-06 00:15:00,30.0,24.6,30.11,NNW,345,0.0,0.0,80,0.00,,,0.00,VWS V14.01,2013-11-06 06:15:00,
2013-11-06 00:20:00,30.1,24.7,30.11,NNW,344,0.0,0.0,80,0.00,,,0.00,VWS V14.01,2013-11-06 06:20:00,
2013-11-06 00:25:00,30.1,24.7,30.11,NNW,344,0.0,0.0,80,0.00,,OVC049,0.00,VWS V14.01,2013-11-06 06:25:00,
2013-11-06 00:30:00,30.1,24.7,30.10,NNW,344,0.0,0.0,80,0.00,,OVC049,0.00,VWS V14.01,2013-11-06 06:30:00,
2013-11-06 00:40:00,30.0,24.6,30.11,NNW,344,0.0,0.0,80,0.00,,OVC049,0.00,VWS V14.01,2013-11-06 06:40:00,
2013-11-06 00:50:00,29.9,24.5,30.11,NNW,344,0.0,0.0,80,0.00,,OVC047,0.00,VWS V14.01,2013-11-06 06:50:00,
2013-11-06 00:55:00,29.9,24.5,30.11,NNW,344,0.0,0.0,80,0.00,,OVC047,0.00,VWS V14.01,2013-11-06 06:55:00,
2013-11-06 01:05:00,29.8,24.4,30.11,NNW,344,0.0,0.0,80,0.00,,OVC045,0.00,VWS V14.01,2013-11-06 07:05:00,
2013-11-06 01:10:00,29.7,24.3,30.11,NNW,344,0.0,0.0,80,0.00,,OVC045,0.00,VWS V14.01,2013-11-06 07:10:00,
2013-11-06 01:15:00,29.7,24.3,30.11,NNW,344,0.0,0.0,80,0.00,,OVC045,0.00,VWS V14.01,2013-11-06 07:15:00,
2013-11-06 01:25:00,29.7,24.3,30.11,NNW,344,0.0,0.0,80,0.00,,OVC039,0.00,VWS V14.01,2013-11-06 07:25:00,
2013-11-06 01:30:00,29.7,24.3,30.11,NNW,344,0.0,0.0,80,0.00,,OVC039,0.00,VWS V14.01,2013-11-06 07:30:00,
2013-11-06 01:40:00,29.7,24.3,30.11,NNW,344,0.0,0.0,80,0.00,,OVC039,0.00,VWS V14.01,2013-11-06 07:40:00,
2013-11-06 01:50:00,29.6,24.2,30.12,NNW,344,0.0,0.0,80,0.00,,OVC070,0.00,VWS V14.01,2013-11-06 07:50:00,
2013-11-06 02:00:00,29.5,24.1,30.11,NNW,344,0.0,0.0,80,0.00,,OVC070,0.00,VWS V14.01,2013-11-06 08:00:00,
2013-11-06 02:05:00,29.5,24.1,30.11,NNW,344,0.0,0.0,80,0.00,,OVC070,0.00,VWS V14.01,2013-11-06 08:05:00,
2013-11-06 02:10:00,29.4,24.0,30.11,NNW,344,0.0,0.0,80,0.00,,OVC070,0.00,VWS V14.01,2013-11-06 08:10:00,
2013-11-06 02:15:00,29.5,24.1,30.11,NNW,344,0.0,0.0,80,0.00,,OVC070,0.00,VWS V14.01,2013-11-06 08:15:00,
2013-11-06 02:25:00,29.5,24.1,30.11,NNW,344,0.0,0.0,80,0.00,,OVC060,0.00,VWS V14.01,2013-11-06 08:25:00,
2013-11-06 02:30:00,29.5,24.1,30.11,NNW,344,0.0,0.0,80,0.00,,OVC060,0.00,VWS V14.01,2013-11-06 08:30:00,
2013-11-06 02:35:00,29.5,24.1,30.11,NNW,344,0.0,0.0,80,0.00,,OVC060,0.00,VWS V14.01,2013-11-06 08:35:00,
2013-11-06 02:40:00,29.5,24.1,30.11,NNW,344,0.0,0.0,80,0.00,,OVC060,0.00,VWS V14.01,2013-11-06 08:40:00,
2013-11-06 02:50:00,29.4,24.0,30.11,NNW,344,0.0,0.0,80,0.00,,OVC060,0.00,VWS V14.01,2013-11-06 08:50:00,
2013-11-06 03:00:00,29.2,23.8,30.11,NNW,344,0.0,0.0,80,0.00,,OVC060,0.00,VWS V14.01,2013-11-06 09:00:00,
2013-11-06 03:05:00,29.0,23.9,30.11,NNW,344,0.0,0.0,81,0.00,,BKN095,0.00,VWS V14.01,2013-11-06 09:05:00,
2013-11-06 03:15:00,28.5,23.4,30.11,NNW,344,0.0,0.0,81,0.00,,BKN095,0.00,VWS V14.01,2013-11-06 09:15:00,
2013-11-06 03:20:00,28.3,23.2,30.11,NNW,344,0.0,0.0,81,0.00,,BKN085,0.00,VWS V14.01,2013-11-06 09:20:00,
2013-11-06 03:30:00,28.0,22.9,30.11,NNW,344,0.0,0.0,81,0.00,,BKN085,0.00,VWS V14.01,2013-11-06 09:30:00,
2013-11-06 03:35:00,27.9,22.8,30.11,NNW,344,0.0,0.0,81,0.00,,BKN085,0.00,VWS V14.01,2013-11-06 09:35:00,
2013-11-06 03:45:00,27.7,22.6,30.12,NNW,344,0.0,0.0,81,0.00,,SCT085,0.00,VWS V14.01,2013-11-06 09:45:00,
2013-11-06 03:50:00,27.5,22.5,30.11,NNW,344,0.0,0.0,81,0.00,,SCT085,0.00,VWS V14.01,2013-11-06 09:50:00,
2013-11-06 03:55:00,27.2,22.1,30.11,NNW,344,0.0,0.0,81,0.00,,SCT085,0.00,VWS V14.01,2013-11-06 09:55:00,
2013-11-06 04:00:00,27.0,22.0,30.11,NNW,344,0.0,0.0,81,0.00,,SCT085,0.00,VWS V14.01,2013-11-06 10:00:00,
2013-11-06 04:10:00,26.7,21.7,30.11,NNW,344,0.0,0.0,81,0.00,,CLR,0.00,VWS V14.01,2013-11-06 10:10:00,
2013-11-06 04:15:00,26.6,21.6,30.10,NNW,344,0.0,0.0,81,0.00,,CLR,0.00,VWS V14.01,2013-11-06 10:15:00,
2013-11-06 04:25:00,26.7,21.7,30.10,NNW,344,0.0,0.0,81,0.00,,SCT120,0.00,VWS V14.01,2013-11-06 10:25:00,
2013-11-06 04:35:00,26.9,21.9,30.10,NNW,344,0.0,0.0,81,0.00,,SCT120,0.00,VWS V14.01,2013-11-06 10:35:00,
2013-11-06 04:45:00,26.8,21.8,30.11,NNW,344,0.0,0.0,81,0.00,,SCT120,0.00,VWS V14.01,2013-11-06 10:45:00,
2013-11-06 04:55:00,26.2,21.2,30.11,NNW,344,0.0,0.0,81,0.00,,SCT120,0.00,VWS V14.01,2013-11-06 10:55:00,
2013-11-06 05:00:00,25.8,20.8,30.11,NNW,344,0.0,0.0,81,0.00,,SCT120,0.00,VWS V14.01,2013-11-06 11:00:00,
2013-11-06 05:05:00,25.3,20.3,30.11,NNW,344,0.0,0.0,81,0.00,,SCT110,0.00,VWS V14.01,2013-11-06 11:05:00,
2013-11-06 05:10:00,24.7,20.0,30.11,NNW,344,0.0,0.0,82,0.00,,SCT110,0.00,VWS V14.01,2013-11-06 11:10:00,
2013-11-06 05:15:00,24.2,19.5,30.11,NNW,344,0.0,0.0,82,0.00,,SCT110,0.00,VWS V14.01,2013-11-06 11:15:00,
2013-11-06 05:20:00,23.7,19.0,30.11,NNW,344,0.0,0.0,82,0.00,,CLR,0.00,VWS V14.01,2013-11-06 11:20:00,
2013-11-06 05:30:00,23.2,18.5,30.11,NNW,344,0.0,0.0,82,0.00,,CLR,0.00,VWS V14.01,2013-11-06 11:30:00,
2013-11-06 05:35:00,22.9,18.2,30.11,NNW,344,0.0,0.0,82,0.00,,CLR,0.00,VWS V14.01,2013-11-06 11:35:00,
2013-11-06 05:45:00,22.6,17.9,30.11,NNW,344,0.0,0.0,82,0.00,,CLR,0.00,VWS V14.01,2013-11-06 11:45:00,
2013-11-06 05:50:00,22.6,17.9,30.11,NNW,344,0.0,0.0,82,0.00,,CLR,0.00,VWS V14.01,2013-11-06 11:50:00,
2013-11-06 06:00:00,22.4,17.8,30.11,NNW,344,0.0,0.0,82,0.00,,CLR,0.00,VWS V14.01,2013-11-06 12:00:00,
2013-11-06 06:05:00,22.3,17.6,30.11,NNW,344,0.0,0.0,82,0.00,,CLR,0.00,VWS V14.01,2013-11-06 12:05:00,
2013-11-06 06:15:00,21.9,17.3,30.12,NNW,343,0.0,1.0,82,0.00,,CLR,0.00,VWS V14.01,2013-11-06 12:15:00,
2013-11-06 06:25:00,21.7,17.1,30.11,NNW,343,0.0,0.0,82,0.00,,CLR,0.00,VWS V14.01,2013-11-06 12:25:00,
2013-11-06 06:35:00,21.5,16.9,30.12,NNW,343,0.0,0.0,82,0.00,,CLR,0.00,VWS V14.01,2013-11-06 12:35:00,
2013-11-06 06:40:00,21.3,16.7,30.12,NNW,343,0.0,0.0,82,0.00,,CLR,0.00,VWS V14.01,2013-11-06 12:40:00,
2013-11-06 06:45:00,21.1,16.5,30.12,NNW,343,0.0,0.0,82,0.00,,CLR,0.00,VWS V14.01,2013-11-06 12:45:00,
2013-11-06 06:50:00,20.9,16.6,30.12,NNW,343,0.0,0.0,83,0.00,,CLR,0.00,VWS V14.01,2013-11-06 12:50:00,
2013-11-06 07:00:00,20.3,16.0,30.12,NNW,343,0.0,0.0,83,0.00,,CLR,0.00,VWS V14.01,2013-11-06 13:00:00,
2013-11-06 07:05:00,20.1,15.8,30.12,NNW,343,0.0,0.0,83,0.00,,CLR,0.00,VWS V14.01,2013-11-06 13:05:00,
2013-11-06 07:10:00,20.0,15.7,30.12,NNW,343,0.0,0.0,83,0.00,,CLR,0.00,VWS V14.01,2013-11-06 13:10:00,
2013-11-06 07:15:00,19.9,15.6,30.12,NNW,343,0.0,0.0,83,0.00,,CLR,0.00,VWS V14.01,2013-11-06 13:15:00,
2013-11-06 07:20:00,20.0,15.4,30.13,NNW,343,0.0,0.0,82,0.00,,CLR,0.00,VWS V14.01,2013-11-06 13:20:00,
2013-11-06 07:30:00,20.2,15.9,30.13,NNW,343,0.0,0.0,83,0.00,,CLR,0.00,VWS V14.01,2013-11-06 13:30:00,
2013-11-06 07:40:00,20.3,15.7,30.13,NNW,343,0.0,0.0,82,0.00,,CLR,0.00,VWS V14.01,2013-11-06 13:40:00,
2013-11-06 07:45:00,20.5,15.9,30.13,NNW,343,0.0,0.0,82,0.00,,CLR,0.00,VWS V14.01,2013-11-06 13:45:00,
2013-11-06 07:50:00,20.8,16.2,30.13,NNW,343,0.0,0.0,82,0.00,,CLR,0.00,VWS V14.01,2013-11-06 13:50:00,
2013-11-06 08:00:00,21.3,16.7,30.14,NNW,343,0.0,0.0,82,0.00,,CLR,0.00,VWS V14.01,2013-11-06 14:00:00,
2013-11-06 08:05:00,21.4,17.0,30.14,NNW,343,0.0,0.0,83,0.00,,CLR,0.00,VWS V14.01,2013-11-06 14:05:00,
2013-11-06 08:15:00,21.9,17.3,30.14,NNW,343,0.0,0.0,82,0.00,,CLR,0.00,VWS V14.01,2013-11-06 14:15:00,
2013-11-06 08:25:00,22.5,17.9,30.15,NNW,343,0.0,0.0,82,0.00,,CLR,0.00,VWS V14.01,2013-11-06 14:25:00,
2013-11-06 08:30:00,22.9,18.2,30.15,NNW,343,0.0,0.0,82,0.00,,CLR,0.00,VWS V14.01,2013-11-06 14:30:00,
2013-11-06 08:35:00,23.3,18.6,30.15,NNW,342,0.0,0.0,82,0.01,,CLR,0.01,VWS V14.01,2013-11-06 14:35:00,
2013-11-06 08:40:00,23.5,18.8,30.15,NNW,342,0.0,0.0,82,0.01,,CLR,0.01,VWS V14.01,2013-11-06 14:40:00,
2013-11-06 08:50:00,24.2,19.5,30.15,NNW,342,0.0,0.0,82,0.01,,CLR,0.01,VWS V14.01,2013-11-06 14:50:00,
2013-11-06 08:55:00,24.5,19.8,30.15,NNW,342,0.0,0.0,82,0.01,,CLR,0.01,VWS V14.01,2013-11-06 14:55:00,
2013-11-06 09:00:00,24.8,20.1,30.15,NNW,342,0.0,0.0,82,0.01,,CLR,0.01,VWS V14.01,2013-11-06 15:00:00,
2013-11-06 09:10:00,25.5,21.1,30.15,NW,326,0.0,1.0,83,0.03,,CLR,0.03,VWS V14.01,2013-11-06 15:10:00,
2013-11-06 09:15:00,25.7,21.3,30.16,West,266,0.0,2.1,83,0.03,,CLR,0.03,VWS V14.01,2013-11-06 15:15:00,
2013-11-06 09:20:00,25.3,21.1,30.16,West,264,0.0,0.0,84,0.03,,CLR,0.03,VWS V14.01,2013-11-06 15:20:00,
2013-11-06 09:30:00,24.6,20.7,30.16,West,281,2.0,4.2,85,0.04,,CLR,0.04,VWS V14.01,2013-11-06 15:30:00,
2013-11-06 09:35:00,24.5,20.6,30.16,West,275,1.0,4.2,85,0.05,,CLR,0.05,VWS V14.01,2013-11-06 15:35:00,
2013-11-06 09:40:00,24.5,20.4,30.16,West,271,3.0,6.3,84,0.04,,CLR,0.05,VWS V14.01,2013-11-06 15:40:00,
2013-11-06 09:45:00,24.7,20.6,30.16,West,268,2.0,4.2,84,0.05,,CLR,0.06,VWS V14.01,2013-11-06 15:45:00,
2013-11-06 09:50:00,24.9,20.8,30.16,West,273,2.0,6.3,84,0.05,,CLR,0.06,VWS V14.01,2013-11-06 15:50:00,
2013-11-06 10:00:00,25.4,21.2,30.16,West,268,1.0,3.1,84,0.06,,CLR,0.07,VWS V14.01,2013-11-06 16:00:00,
2013-11-06 10:10:00,26.2,22.0,30.16,West,273,1.0,4.2,84,0.07,,CLR,0.08,VWS V14.01,2013-11-06 16:10:00,
2013-11-06 10:15:00,26.6,22.1,30.16,West,264,3.0,5.2,83,0.05,,CLR,0.08,VWS V14.01,2013-11-06 16:15:00,
2013-11-06 10:20:00,27.0,22.8,30.16,West,279,3.0,5.2,84,0.05,,CLR,0.08,VWS V14.01,2013-11-06 16:20:00,
2013-11-06 10:25:00,27.2,23.0,30.16,WSW,257,2.0,4.2,84,0.06,,CLR,0.09,VWS V14.01,2013-11-06 16:25:00,
2013-11-06 10:30:00,27.5,23.3,30.16,West,271,2.0,4.2,84,0.05,,CLR,0.09,VWS V14.01,2013-11-06 16:30:00,
2013-11-06 10:40:00,28.2,24.0,30.16,SW,232,3.0,7.3,84,0.05,,CLR,0.10,VWS V14.01,2013-11-06 16:40:00,
2013-11-06 10:45:00,28.8,24.6,30.17,West,267,4.0,5.2,84,0.05,,CLR,0.10,VWS V14.01,2013-11-06 16:45:00,
2013-11-06 10:55:00,29.9,25.7,30.17,SW,224,3.0,6.3,84,0.05,,CLR,0.11,VWS V14.01,2013-11-06 16:55:00,
2013-11-06 11:00:00,30.3,26.1,30.17,WSW,240,2.0,6.3,84,0.04,,CLR,0.11,VWS V14.01,2013-11-06 17:00:00,
2013-11-06 11:05:00,30.6,26.4,30.17,WSW,240,1.0,4.2,84,0.04,,CLR,0.11,VWS V14.01,2013-11-06 17:05:00,
2013-11-06 11:10:00,30.7,26.7,30.17,WSW,254,2.0,5.2,85,0.05,,CLR,0.12,VWS V14.01,2013-11-06 17:10:00,
2013-11-06 11:15:00,31.2,26.9,30.17,SW,223,2.0,5.2,84,0.04,,CLR,0.12,VWS V14.01,2013-11-06 17:15:00,
2013-11-06 11:20:00,31.6,27.6,30.17,WSW,250,4.0,5.2,85,0.05,,CLR,0.13,VWS V14.01,2013-11-06 17:20:00,
2013-11-06 11:25:00,31.8,27.8,30.17,WSW,243,3.0,6.3,85,0.05,,CLR,0.13,VWS V14.01,2013-11-06 17:25:00,
2013-11-06 11:35:00,32.3,28.0,30.17,SW,234,5.0,9.4,84,0.05,,CLR,0.14,VWS V14.01,2013-11-06 17:35:00,
2013-11-06 11:45:00,33.0,28.7,30.17,SW,229,5.0,8.4,84,0.04,,,0.14,VWS V14.01,2013-11-06 17:45:00,
2013-11-06 11:55:00,33.9,29.6,30.16,SW,223,2.0,6.3,84,0.05,,,0.15,VWS V14.01,2013-11-06 17:55:00,
2013-11-06 12:05:00,34.3,29.7,30.16,SW,227,5.0,7.3,83,0.05,,CLR,0.16,VWS V14.01,2013-11-06 18:05:00,
2013-11-06 12:15:00,34.4,29.5,30.16,SW,223,4.0,8.4,82,0.04,,CLR,0.16,VWS V14.01,2013-11-06 18:15:00,
2013-11-06 12:20:00,34.7,29.8,30.15,SW,229,5.0,7.3,82,0.05,,CLR,0.17,VWS V14.01,2013-11-06 18:20:00,
2013-11-06 12:25:00,35.0,29.8,30.15,SW,224,3.0,9.4,81,0.04,,CLR,0.17,VWS V14.01,2013-11-06 18:25:00,
2013-11-06 12:30:00,35.2,30.0,30.15,SW,221,4.0,7.3,81,0.04,,CLR,0.17,VWS V14.01,2013-11-06 18:30:00,
2013-11-06 12:40:00,35.6,30.0,30.15,SW,214,3.0,7.3,80,0.04,,CLR,0.18,VWS V14.01,2013-11-06 18:40:00,
2013-11-06 12:45:00,35.8,30.2,30.15,SW,217,6.0,7.3,80,0.04,,CLR,0.18,VWS V14.01,2013-11-06 18:45:00,
2013-11-06 12:50:00,35.8,29.9,30.15,SW,214,6.0,8.4,79,0.04,,CLR,0.18,VWS V14.01,2013-11-06 18:50:00,
2013-11-06 12:55:00,35.9,29.7,30.15,SSW,213,5.0,8.4,78,0.03,,CLR,0.18,VWS V14.01,2013-11-06 18:55:00,
2013-11-06 13:05:00,36.4,29.6,30.15,SSW,200,3.0,9.4,76,0.03,,CLR,0.18,VWS V14.01,2013-11-06 19:05:00,
2013-11-06 13:10:00,36.6,30.1,30.14,SSW,205,7.0,7.3,77,0.02,,CLR,0.18,VWS V14.01,2013-11-06 19:10:00,
2013-11-06 13:15:00,36.8,30.0,30.15,SSW,213,6.0,8.4,76,0.02,,CLR,0.18,VWS V14.01,2013-11-06 19:15:00,
2013-11-06 13:20:00,36.8,29.3,30.14,SSW,210,6.0,10.5,74,0.02,,CLR,0.18,VWS V14.01,2013-11-06 19:20:00,
2013-11-06 13:25:00,36.8,29.3,30.14,SW,235,3.0,9.4,74,0.01,,CLR,0.18,VWS V14.01,2013-11-06 19:25:00,
2013-11-06 13:30:00,36.9,29.1,30.14,SW,224,7.0,8.4,73,0.01,,CLR,0.18,VWS V14.01,2013-11-06 19:30:00,
2013-11-06 13:35:00,36.9,28.7,30.14,SW,217,3.0,8.4,72,0.01,,CLR,0.18,VWS V14.01,2013-11-06 19:35:00,
2013-11-06 13:40:00,37.1,28.9,30.14,SSW,198,6.0,7.3,72,0.01,,CLR,0.18,VWS V14.01,2013-11-06 19:40:00,
2013-11-06 13:45:00,37.4,29.2,30.14,SSW,205,2.0,6.3,72,0.00,,CLR,0.18,VWS V14.01,2013-11-06 19:45:00,
2013-11-06 13:50:00,37.4,29.2,30.14,SSW,198,3.0,8.4,72,0.00,,CLR,0.18,VWS V14.01,2013-11-06 19:50:00,
2013-11-06 13:55:00,37.3,29.1,30.15,SSW,203,3.0,8.4,72,0.00,,CLR,0.18,VWS V14.01,2013-11-06 19:55:00,
2013-11-06 14:00:00,37.3,29.1,30.14,SSW,192,6.0,8.4,72,0.00,,CLR,0.18,VWS V14.01,2013-11-06 20:00:00,
2013-11-06 14:10:00,37.2,28.0,30.15,South,190,5.0,11.5,69,0.00,,CLR,0.18,VWS V14.01,2013-11-06 20:10:00,
2013-11-06 14:15:00,37.1,27.5,30.14,South,191,3.0,9.4,68,0.00,,CLR,0.18,VWS V14.01,2013-11-06 20:15:00,
2013-11-06 14:20:00,37.3,28.1,30.14,SSW,208,7.0,9.4,69,0.00,,CLR,0.18,VWS V14.01,2013-11-06 20:20:00,
2013-11-06 14:25:00,37.1,27.9,30.14,SSW,209,2.0,10.5,69,0.00,,CLR,0.18,VWS V14.01,2013-11-06 20:25:00,
2013-11-06 14:30:00,37.2,28.3,30.14,SSW,211,7.0,8.4,70,0.00,,CLR,0.18,VWS V14.01,2013-11-06 20:30:00,
2013-11-06 14:35:00,37.1,27.5,30.14,SW,232,2.0,9.4,68,0.00,,CLR,0.18,VWS V14.01,2013-11-06 20:35:00,
2013-11-06 14:45:00,36.6,28.1,30.15,SSW,195,4.0,9.4,71,0.00,,CLR,0.18,VWS V14.01,2013-11-06 20:45:00,
2013-11-06 14:50:00,36.6,28.4,30.15,SSW,207,5.0,9.4,72,0.00,,CLR,0.18,VWS V14.01,2013-11-06 20:50:00,
2013-11-06 14:55:00,36.8,28.6,30.15,SW,215,2.0,9.4,72,0.00,,CLR,0.18,VWS V14.01,2013-11-06 20:55:00,
2013-11-06 15:05:00,36.6,28.8,30.15,SSW,195,7.0,11.5,73,0.00,,CLR,0.18,VWS V14.01,2013-11-06 21:05:00,
2013-11-06 15:10:00,36.5,29.0,30.15,SSW,211,3.0,8.4,74,0.00,,CLR,0.18,VWS V14.01,2013-11-06 21:10:00,
2013-11-06 15:15:00,36.4,28.9,30.14,South,189,8.0,8.4,74,0.00,,CLR,0.18,VWS V14.01,2013-11-06 21:15:00,
2013-11-06 15:20:00,36.2,28.7,30.14,SSW,207,7.0,8.4,74,0.00,,CLR,0.18,VWS V14.01,2013-11-06 21:20:00,
2013-11-06 15:25:00,36.2,28.7,30.14,SSW,211,3.0,10.5,74,0.00,,SCT090,0.18,VWS V14.01,2013-11-06 21:25:00,
2013-11-06 15:30:00,36.3,29.1,30.14,SSW,213,2.0,8.4,75,0.00,,SCT090,0.18,VWS V14.01,2013-11-06 21:30:00,
2013-11-06 15:40:00,35.9,28.8,30.14,SW,220,4.0,6.3,75,0.00,,SCT090,0.18,VWS V14.01,2013-11-06 21:40:00,
2013-11-06 15:45:00,35.2,28.4,30.14,SW,219,5.0,6.3,76,0.00,,BKN090,0.18,VWS V14.01,2013-11-06 21:45:00,
2013-11-06 15:50:00,34.6,28.1,30.14,SW,219,2.0,6.3,77,0.00,,BKN090,0.18,VWS V14.01,2013-11-06 21:50:00,
2013-11-06 15:55:00,34.1,28.0,30.14,SSW,212,4.0,5.2,78,0.00,,BKN090,0.18,VWS V14.01,2013-11-06 21:55:00,
2013-11-06 16:00:00,33.7,27.9,30.14,SSW,205,4.0,7.3,79,0.00,,BKN090,0.18,VWS V14.01,2013-11-06 22:00:00,
2013-11-06 16:05:00,33.8,28.3,30.14,South,186,5.0,7.3,80,0.00,,BKN090,0.18,VWS V14.01,2013-11-06 22:05:00,
2013-11-06 16:10:00,34.3,28.5,30.14,SSW,202,2.0,6.3,79,0.00,,BKN090,0.18,VWS V14.01,2013-11-06 22:10:00,
2013-11-06 16:15:00,34.3,28.5,30.14,SSW,196,3.0,8.4,79,0.00,,BKN090,0.18,VWS V14.01,2013-11-06 22:15:00,
2013-11-06 16:20:00,33.9,28.1,30.14,SSW,200,2.0,6.3,79,0.00,,BKN090,0.18,VWS V14.01,2013-11-06 22:20:00,
2013-11-06 16:30:00,33.5,28.0,30.14,South,180,2.0,7.3,80,0.00,,BKN090,0.18,VWS V14.01,2013-11-06 22:30:00,
2013-11-06 16:35:00,33.4,27.9,30.14,South,191,7.0,8.4,80,0.00,,BKN090,0.18,VWS V14.01,2013-11-06 22:35:00,
2013-11-06 16:40:00,33.3,28.1,30.14,SSW,207,4.0,8.4,81,0.00,,BKN090,0.18,VWS V14.01,2013-11-06 22:40:00,
2013-11-06 16:45:00,33.1,27.9,30.14,SSW,211,2.0,7.3,81,0.00,,BKN090,0.18,VWS V14.01,2013-11-06 22:45:00,
2013-11-06 16:55:00,32.6,27.7,30.14,SSW,194,3.0,6.3,82,0.00,,BKN090,0.18,VWS V14.01,2013-11-06 22:55:00,
2013-11-06 17:05:00,32.0,27.4,30.14,SW,222,1.0,8.4,83,0.00,,BKN090,0.18,VWS V14.01,2013-11-06 23:05:00,
2013-11-06 17:15:00,31.8,27.2,30.14,SW,217,3.0,5.2,83,0.00,,BKN090,0.18,VWS V14.01,2013-11-06 23:15:00,
2013-11-06 17:20:00,31.6,27.0,30.14,SSW,213,4.0,6.3,83,0.00,,BKN090,0.18,VWS V14.01,2013-11-06 23:20:00,
2013-11-06 17:25:00,31.5,27.2,30.14,SW,220,2.0,6.3,84,0.00,,BKN090,0.18,VWS V14.01,2013-11-06 23:25:00,
2013-11-06 17:30:00,31.5,27.2,30.14,SW,217,4.0,7.3,84,0.00,,BKN090,0.18,VWS V14.01,2013-11-06 23:30:00,
2013-11-06 17:40:00,31.5,27.2,30.15,SSW,208,4.0,6.3,84,0.00,,BKN090,0.18,VWS V14.01,2013-11-06 23:40:00,
2013-11-06 17:45:00,31.4,27.1,30.15,SSW,210,2.0,7.3,84,0.00,,OVC090,0.18,VWS V14.01,2013-11-06 23:45:00,
2013-11-06 17:50:00,31.3,27.0,30.15,SW,221,3.0,8.4,84,0.00,,OVC090,0.18,VWS V14.01,2013-11-06 23:50:00,
2013-11-06 17:55:00,31.3,27.0,30.15,SSW,208,6.0,8.4,84,0.00,,OVC090,0.18,VWS V14.01,2013-11-06 23:55:00,
2013-11-06 18:05:00,31.6,27.0,30.15,SW,216,5.0,10.5,83,0.00,,OVC090,0.18,VWS V14.01,2013-11-07 00:05:00,
2013-11-06 18:10:00,31.6,27.0,30.15,SW,220,4.0,8.4,83,0.00,,OVC090,0.18,VWS V14.01,2013-11-07 00:10:00,
2013-11-06 18:20:00,31.7,27.1,30.16,SW,228,9.0,10.5,83,0.00,,OVC090,0.18,VWS V14.01,2013-11-07 00:20:00,
2013-11-06 18:25:00,31.6,27.0,30.16,SW,217,5.0,9.4,83,0.00,,OVC090,0.18,VWS V14.01,2013-11-07 00:25:00,
2013-11-06 18:35:00,31.5,26.6,30.16,SW,232,6.0,9.4,82,0.00,,OVC090,0.18,VWS V14.01,2013-11-07 00:35:00,
2013-11-06 18:45:00,31.3,26.5,30.16,SW,221,4.0,9.4,82,0.00,,OVC090,0.18,VWS V14.01,2013-11-07 00:45:00,
2013-11-06 18:50:00,31.2,26.4,30.16,SW,225,6.0,9.4,82,0.00,,OVC090,0.18,VWS V14.01,2013-11-07 00:50:00,
2013-11-06 18:55:00,31.0,26.2,30.16,SSW,205,4.0,7.3,82,0.00,,OVC090,0.18,VWS V14.01,2013-11-07 00:55:00,
2013-11-06 19:05:00,30.6,25.8,30.16,SW,234,4.0,8.4,82,0.00,,OVC090,0.18,VWS V14.01,2013-11-07 01:05:00,
2013-11-06 19:15:00,30.7,25.9,30.16,SSW,213,4.0,9.4,82,0.00,,OVC090,0.18,VWS V14.01,2013-11-07 01:15:00,
2013-11-06 19:20:00,30.8,26.0,30.16,SW,228,5.0,9.4,82,0.00,,OVC090,0.18,VWS V14.01,2013-11-07 01:20:00,
2013-11-06 19:25:00,30.9,26.1,30.16,SW,221,5.0,11.5,82,0.00,,OVC090,0.18,VWS V14.01,2013-11-07 01:25:00,
2013-11-06 19:35:00,31.1,26.3,30.16,SW,217,5.0,9.4,82,0.00,,OVC090,0.18,VWS V14.01,2013-11-07 01:35:00,
2013-11-06 19:40:00,31.2,26.4,30.16,SW,223,5.0,10.5,82,0.00,,OVC090,0.18,VWS V14.01,2013-11-07 01:40:00,
2013-11-06 19:50:00,30.8,25.7,30.17,WSW,239,5.0,10.5,81,0.00,,OVC090,0.18,VWS V14.01,2013-11-07 01:50:00,
2013-11-06 19:55:00,30.3,25.5,30.17,SSW,204,4.0,9.4,82,0.00,,OVC090,0.18,VWS V14.01,2013-11-07 01:55:00,
2013-11-06 20:00:00,30.0,25.5,30.17,SW,232,3.0,11.5,83,0.00,,OVC090,0.18,VWS V14.01,2013-11-07 02:00:00,
2013-11-06 20:05:00,29.9,25.4,30.17,SSW,204,5.0,10.5,83,0.00,,OVC090,0.18,VWS V14.01,2013-11-07 02:05:00,
2013-11-06 20:15:00,29.5,25.0,30.18,SW,224,5.0,10.5,83,0.00,,OVC090,0.18,VWS V14.01,2013-11-07 02:15:00,
2013-11-06 20:20:00,29.4,24.9,30.18,SW,224,8.0,10.5,83,0.00,,OVC090,0.18,VWS V14.01,2013-11-07 02:20:00,
2013-11-06 20:30:00,28.9,24.7,30.18,SW,229,5.0,9.4,84,0.00,,SCT090,0.18,VWS V14.01,2013-11-07 02:30:00,
2013-11-06 20:35:00,28.8,24.6,30.18,WSW,240,2.0,11.5,84,0.00,,SCT090,0.18,VWS V14.01,2013-11-07 02:35:00,
2013-11-06 20:40:00,28.7,24.5,30.18,SW,236,6.0,10.5,84,0.00,,SCT090,0.18,VWS V14.01,2013-11-07 02:40:00,
2013-11-06 20:45:00,28.6,24.4,30.18,WSW,237,5.0,10.5,84,0.00,,BKN010,0.18,VWS V14.01,2013-11-07 02:45:00,
2013-11-06 20:50:00,28.6,24.4,30.18,SW,233,5.0,10.5,84,0.00,,BKN010,0.18,VWS V14.01,2013-11-07 02:50:00,
2013-11-06 20:55:00,28.5,24.3,30.18,SW,221,6.0,12.6,84,0.00,,BKN010,0.18,VWS V14.01,2013-11-07 02:55:00,
2013-11-06 21:00:00,28.5,24.3,30.18,SW,231,4.0,11.5,84,0.00,,BKN010,0.18,VWS V14.01,2013-11-07 03:00:00,
2013-11-06 21:05:00,28.7,24.2,30.19,SW,231,2.0,11.5,83,0.00,,OVC010,0.18,VWS V14.01,2013-11-07 03:05:00,
2013-11-06 21:15:00,28.8,24.3,30.19,WSW,242,4.0,9.4,83,0.00,,OVC010,0.18,VWS V14.01,2013-11-07 03:15:00,
2013-11-06 21:20:00,28.5,24.0,30.19,SW,221,6.0,10.5,83,0.00,,OVC010,0.18,VWS V14.01,2013-11-07 03:20:00,
2013-11-06 21:25:00,28.0,23.5,30.19,SW,228,2.0,8.4,83,0.00,,OVC010,0.18,VWS V14.01,2013-11-07 03:25:00,
2013-11-06 21:30:00,27.8,23.0,30.19,SW,227,5.0,9.4,82,0.00,,OVC010,0.18,VWS V14.01,2013-11-07 03:30:00,
2013-11-06 21:40:00,27.7,22.9,30.19,WSW,246,5.0,10.5,82,0.00,,OVC010,0.18,VWS V14.01,2013-11-07 03:40:00,
2013-11-06 21:45:00,27.7,22.6,30.19,SW,229,6.0,10.5,81,0.00,,BKN085,0.18,VWS V14.01,2013-11-07 03:45:00,
2013-11-06 21:50:00,27.6,22.5,30.20,SW,231,3.0,9.4,81,0.00,,BKN085,0.18,VWS V14.01,2013-11-07 03:50:00,
2013-11-06 21:55:00,27.6,22.5,30.20,WSW,238,3.0,8.4,81,0.00,,BKN085,0.18,VWS V14.01,2013-11-07 03:55:00,
2013-11-06 22:05:00,28.0,22.9,30.20,WSW,252,4.0,8.4,81,0.00,,SCT085,0.18,VWS V14.01,2013-11-07 04:05:00,
2013-11-06 22:10:00,28.1,22.7,30.20,SW,226,5.0,8.4,80,0.00,,SCT085,0.18,VWS V14.01,2013-11-07 04:10:00,
2013-11-06 22:20:00,28.1,23.0,30.20,SW,224,5.0,8.4,81,0.00,,SCT085,0.18,VWS V14.01,2013-11-07 04:20:00,
2013-11-06 22:25:00,27.9,22.8,30.20,SW,236,4.0,8.4,81,0.00,,CLR,0.18,VWS V14.01,2013-11-07 04:25:00,
2013-11-06 22:30:00,27.8,22.7,30.20,West,265,3.0,7.3,81,0.00,,CLR,0.18,VWS V14.01,2013-11-07 04:30:00,
2013-11-06 22:35:00,27.4,22.4,30.20,SW,229,2.0,6.3,81,0.00,,CLR,0.18,VWS V14.01,2013-11-07 04:35:00,
2013-11-06 22:40:00,27.3,22.2,30.20,SW,232,3.0,6.3,81,0.00,,CLR,0.18,VWS V14.01,2013-11-07 04:40:00,
2013-11-06 22:50:00,26.7,21.7,30.20,WSW,244,1.0,7.3,81,0.00,,CLR,0.18,VWS V14.01,2013-11-07 04:50:00,
2013-11-06 22:55:00,26.6,21.6,30.20,West,272,4.0,8.4,81,0.00,,CLR,0.18,VWS V14.01,2013-11-07 04:55:00,
2013-11-06 23:00:00,26.3,21.3,30.19,SW,223,4.0,7.3,81,0.00,,CLR,0.18,VWS V14.01,2013-11-07 05:00:00,
2013-11-06 23:05:00,26.1,21.1,30.19,SW,230,3.0,6.3,81,0.00,,CLR,0.18,VWS V14.01,2013-11-07 05:05:00,
2013-11-06 23:10:00,25.8,20.8,30.19,WSW,242,6.0,6.3,81,0.00,,CLR,0.18,VWS V14.01,2013-11-07 05:10:00,
2013-11-06 23:15:00,25.8,20.8,30.19,SW,224,0.0,6.3,81,0.00,,CLR,0.18,VWS V14.01,2013-11-07 05:15:00,
2013-11-06 23:20:00,25.7,20.7,30.19,SW,228,0.0,2.1,81,0.00,,CLR,0.18,VWS V14.01,2013-11-07 05:20:00,
2013-11-06 23:25:00,25.4,20.4,30.19,SW,228,0.0,2.1,81,0.00,,CLR,0.18,VWS V14.01,2013-11-07 05:25:00,
2013-11-06 23:30:00,25.1,20.1,30.19,SW,228,0.0,0.0,81,0.00,,CLR,0.18,VWS V14.01,2013-11-07 05:30:00,
2013-11-06 23:35:00,24.8,19.8,30.20,SW,228,0.0,0.0,81,0.00,,CLR,0.18,VWS V14.01,2013-11-07 05:35:00,
2013-11-06 23:45:00,24.1,19.1,30.20,SW,228,0.0,1.0,81,0.00,,CLR,0.18,VWS V14.01,2013-11-07 05:45:00,
2013-11-06 23:50:00,23.8,18.8,30.20,SW,234,0.0,1.0,81,0.00,,CLR,0.18,VWS V14.01,2013-11-07 05:50:00,
2013-11-06 23:55:00,23.6,18.6,30.20,WSW,240,0.0,1.0,81,0.00,,CLR,0.18,VWS V14.01,2013-11-07 05:55:00,